LiveATC.Net - Listen to live air traffic control over the Internet!


ICAO: LJPZ  IATA: POW   Airport: Portoroz Airport
City: Secovlje
Country: Slovenia   Continent: Europe
LJPZ METAR Weather: LJPZ 251200Z 22009KT 170V250 9999 SCT036 21/16 Q1019
LJPZ Flight Activity (FlightAware)

LJPZ Tower
Feed Status: UP   Listeners: 0
Listen in your browser - HTML5 player (in browser, HTML5)
Click here to listen with your own player (launches your MP3 player)
LJPZ Tower Audio Archives
FacilityFrequency
Portoroz Tower124.875

NOTICE

Unauthorized use prohibited. See LiveATC.net Terms of Service


Find LiveATC Audio Streams


Airport/ARTCC Code

Frequency Search
(e.g., 124.400, 128.75)
Site-wide search
 


Browse LiveATC Feeds
Top 50 LiveATC Feeds
LiveATC Feed Map
Bad Weather Areas

LiveATC FAQ
Offer LiveATC feed
Contact LiveATC.net
Press Inquiries

LiveATC on iPhone
LiveATC on Android

Windows Phone
Windows 8/10

LiveATC Mobile
(Mobile browser)

ATC Audio Archives
Interesting Recordings

LiveATC Forums


Home Page
About LiveATC.net
Make a Donation
Terms of Use
Privacy Policy

Canadian Air Freqs

AIRMETs/SIGMETs

FAA Airport Status
Nat'l Airspace Status
Arrival Demand Charts


Server Software By:
Icecast.org
Liquidsoap